HOWARD Weather Reports


time (UTC)temp
C
wind
direction
speed
KPH
gust
KPH
rain 1hr
cm
rain 24hr
cm
rain mn
cm
humidity
%
barometer
mb
20260506024148 5 345 12.9 25.7 0.00 0.00 0.00 75 1010.9
20260506023149 5 343 11.3 25.7 0.00 0.00 0.00 74 1010.9
20260506022148 6 353 8.0 20.9 0.00 0.00 0.00 72 1010.8
20260506021148 6 335 8.0 30.6 0.00 0.00 0.00 72 1010.7
20260506020231 7 298 11.3 35.4 0.00 0.00 0.00 70 1010.6
20260506020148 7 298 11.3 35.4 0.00 0.00 0.00 70 1010.6
20260506015148 6 334 9.7 19.3 0.00 0.00 0.00 71 1010.6
20260506014148 6 336 4.8 20.9 0.00 0.00 0.00 72 1010.6
20260506013149 6 350 6.4 32.2 0.00 0.00 0.00 73 1010.6
20260506012149 6 341 14.5 29.0 0.00 0.00 0.00 70 1010.5
20260506011149 7 349 8.0 27.4 0.00 0.00 0.00 69 1011.2
20260506010236 7 304 6.4 30.6 0.00 0.00 0.00 69 1011.0
20260506010148 7 304 6.4 30.6 0.00 0.00 0.00 69 1011.0
20260506005148 6 330 9.7 27.4 0.00 0.00 0.00 68 1011.2
20260506004148 7 346 16.1 29.0 0.00 0.00 0.00 65 1010.9
20260506003149 7 312 8.0 25.7 0.00 0.00 0.00 65 1010.9
20260506002148 7 328 8.0 20.9 0.00 0.00 0.00 65 1010.8
20260506001148 7 330 8.0 38.6 0.00 0.00 0.00 63 1010.9
20260506000150 7 339 9.7 24.1 0.00 0.00 0.00 63 1010.9
20260505235148 7 314 8.0 30.6 0.00 0.00 0.00 63 1010.9
20260505234148 7 354 9.7 33.8 0.00 0.00 0.00 65 1010.9
20260505233149 7 350 6.4 24.1 0.00 0.00 0.00 62 1010.8
20260505232228 8 336 8.0 24.1 0.00 0.00 0.00 64 1010.8
20260505232148 8 336 8.0 24.1 0.00 0.00 0.00 64 1010.8
20260505231148 7 337 9.7 20.9 0.00 0.00 0.00 62 1010.8
20260505230148 7 344 8.0 20.9 0.00 0.00 0.00 62 1010.9
20260505225226 8 342 9.7 19.3 0.00 0.00 0.00 62 1011.0
20260505225148 8 342 9.7 19.3 0.00 0.00 0.00 62 1011.0
20260505224148 7 341 14.5 29.0 0.00 0.00 0.00 61 1010.9
20260505223149 8 343 9.7 32.2 0.00 0.00 0.00 58 1011.0
20260505222148 8 334 6.4 27.4 0.00 0.00 0.00 58 1011.0
20260505221148 8 313 8.0 24.1 0.00 0.00 0.00 58 1011.1
20260505220149 8 353 4.8 29.0 0.00 0.00 0.00 59 1011.1
20260505215148 7 304 6.4 30.6 0.00 0.00 0.00 59 1011.1
20260505214148 8 4 8.0 24.1 0.00 0.00 0.00 58 1011.1
20260505213148 8 343 11.3 19.3 0.00 0.00 0.00 59 1011.2
20260505212148 8 348 3.2 24.1 0.00 0.00 0.00 60 1011.1
20260505211148 7 306 6.4 24.1 0.00 0.00 0.00 62 1011.1
20260505210149 8 309 9.7 24.1 0.00 0.00 0.00 59 1011.2
20260505205148 8 294 11.3 25.7 0.00 0.00 0.00 60 1011.2
20260505204148 7 342 6.4 24.1 0.00 0.00 0.00 63 1011.2
20260505203148 8 350 3.2 22.5 0.00 0.00 0.00 59 1011.1
20260505202148 8 333 6.4 24.1 0.00 0.00 0.00 62 1011.1
20260505201148 8 295 12.9 27.4 0.00 0.00 0.00 59 1011.1
20260505200149 7 325 12.9 27.4 0.00 0.00 0.00 59 1011.2
20260505195148 7 308 11.3 24.1 0.00 0.00 0.00 62 1011.2
20260505194148 7 326 4.8 24.1 0.00 0.00 0.00 62 1011.3
20260505193149 7 298 8.0 20.9 0.00 0.00 0.00 61 1011.1
20260505192148 7 279 1.6 24.1 0.00 0.00 0.00 63 1011.1
20260505191148 7 312 8.0 19.3 0.00 0.00 0.00 62 1011.2
20260505190149 7 306 4.8 17.7 0.00 0.00 0.00 62 1011.1
20260505185148 7 299 8.0 17.7 0.00 0.00 0.00 63 1011.0
20260505184227 7 303 9.7 22.5 0.00 0.00 0.00 61 1011.0
20260505184148 7 303 9.7 22.5 0.00 0.00 0.00 61 1011.0
20260505183148 8 316 8.0 29.0 0.00 0.00 0.00 60 1010.8
20260505182148 7 23 8.0 22.5 0.00 0.00 0.00 60 1010.8
20260505181149 7 314 8.0 20.9 0.00 0.00 0.00 59 1010.8
20260505180148 7 352 6.4 22.5 0.00 0.00 0.00 58 1010.7
20260505175235 7 345 9.7 20.9 0.00 0.00 0.00 57 1010.6
20260505175149 7 345 9.7 20.9 0.00 0.00 0.00 57 1010.6
20260505174148 7 356 6.4 16.1 0.00 0.00 0.00 57 1010.6
20260505173148 7 343 9.7 19.3 0.00 0.00 0.00 57 1010.4
20260505172148 7 359 6.4 17.7 0.00 0.00 0.00 57 1010.5
20260505171148 7 344 8.0 17.7 0.00 0.00 0.00 57 1010.3
20260505170148 7 343 8.0 16.1 0.00 0.00 0.00 55 1010.2
20260505165148 7 9 8.0 20.9 0.00 0.00 0.00 56 1010.2
20260505164253 7 341 9.7 19.3 0.00 0.00 0.00 54 1010.0
20260505164148 7 341 9.7 19.3 0.00 0.00 0.00 54 1010.0
20260505163148 6 355 6.4 17.7 0.00 0.00 0.00 57 1010.0
20260505162148 6 340 8.0 17.7 0.00 0.00 0.00 56 1009.9
20260505161148 6 16 11.3 16.1 0.00 0.00 0.00 52 1009.9
20260505160148 6 357 8.0 16.1 0.00 0.00 0.00 55 1009.8
20260505153148 6 351 8.0 19.3 0.00 0.00 0.00 55 1009.6
20260505152148 6 5 11.3 17.7 0.00 0.00 0.00 51 1009.5
20260505151148 6 5 9.7 17.7 0.00 0.00 0.00 52 1009.5
20260505150148 6 2 6.4 17.7 0.00 0.00 0.00 53 1009.2
20260505140239 5 28 8.0 19.3 0.00 0.00 0.00 57 1008.6
20260505140148 5 28 8.0 19.3 0.00 0.00 0.00 57 1008.6
20260505130231 4 12 12.9 19.3 0.00 0.00 0.00 68 1008.6
20260505130148 4 12 12.9 19.3 0.00 0.00 0.00 68 1008.6
20260505124148 3 9 11.3 17.7 0.00 0.00 0.00 76 1008.4
20260505123147 3 6 9.7 16.1 0.00 0.00 0.00 78 1008.3
20260505122148 3 357 8.0 19.3 0.00 0.00 0.00 78 1008.3
20260505121148 3 21 9.7 17.7 0.00 0.00 0.00 78 1008.3
20260505120150 3 12 9.7 17.7 0.00 0.00 0.00 79 1008.3
20260505115401 3 13 9.7 17.7 0.00 0.00 0.00 79 1008.3
20260505115147 3 13 9.7 17.7 0.00 0.00 0.00 79 1008.3
20260505114148 3 6 8.0 16.1 0.00 0.00 0.00 78 1008.3
20260505113148 3 8 8.0 14.5 0.00 0.00 0.00 78 1008.4
20260505112147 3 3 9.7 17.7 0.00 0.00 0.00 80 1008.4
20260505111147 3 350 8.0 16.1 0.00 0.00 0.00 81 1008.4
20260505110149 3 354 6.4 12.9 0.00 0.00 0.00 80 1008.3
20260505102147 3 343 4.8 14.5 0.00 0.00 0.00 78 1008.2
20260505101147 3 351 6.4 12.9 0.00 0.00 0.00 78 1008.3
20260505100147 3 351 6.4 12.9 0.00 0.00 0.00 77 1008.3
20260505095147 4 349 6.4 11.3 0.00 0.00 0.00 76 1008.3
20260505094147 4 343 4.8 12.9 0.00 0.00 0.00 1008.4
20260505093148 5 344 4.8 11.3 0.00 0.00 0.00 76 1008.5
20260505092147 5 343 6.4 14.5 0.00 0.00 0.00 74 1008.4
20260505091147 5 3 8.0 12.9 0.00 0.00 0.00 74 1008.4
20260505090147 4 352 6.4 12.9 0.00 0.00 0.00 1008.5
20260505085148 4 327 4.8 11.3 0.00 0.00 0.00 74 1008.5
20260505084147 5 324 6.4 14.5 0.00 0.00 0.00 73 1008.6
20260505083148 5 331 8.0 16.1 0.00 0.00 0.00 74 1008.7
20260505082147 4 330 6.4 14.5 0.00 0.00 0.00 73 1008.7
20260505081147 5 324 4.8 14.5 0.00 0.00 0.00 72 1008.8
20260505080147 5 324 6.4 12.9 0.00 0.00 0.00 72 1008.7
20260505075147 5 327 6.4 16.1 0.00 0.00 0.00 72 1008.8
20260505074148 5 337 9.7 20.9 0.00 0.00 0.00 72 1008.8
20260505073147 5 328 3.2 19.3 0.00 0.00 0.00 71 1008.8
20260505072147 5 342 8.0 19.3 0.00 0.00 0.00 71 1008.8
20260505071147 5 351 9.7 17.7 0.00 0.00 0.00 73 1008.7
20260505070148 5 335 6.4 16.1 0.00 0.00 0.00 72 1008.7
20260505065147 5 337 6.4 17.7 0.00 0.00 0.00 72 1008.6
20260505064147 5 330 4.8 20.9 0.00 0.00 0.00 72 1008.5
20260505063147 5 336 8.0 17.7 0.00 0.00 0.00 71 1008.7
20260505062147 5 353 6.4 19.3 0.00 0.00 0.00 72 1008.8
20260505061147 5 360 6.4 19.3 0.00 0.00 0.00 1008.8
20260505060147 5 338 9.7 16.1 0.00 0.00 0.00 74 1008.8
20260505055147 5 340 8.0 17.7 0.00 0.00 0.00 73 1008.7
20260505054147 5 333 6.4 17.7 0.00 0.00 0.00 73 1008.8
20260505053148 5 341 8.0 16.1 0.00 0.00 0.00 74 1008.8
20260505052148 5 330 8.0 16.1 0.00 0.00 0.00 73 1008.9
20260505051147 5 327 6.4 20.9 0.00 0.00 0.00 73 1008.8
20260505050147 5 349 12.9 24.1 0.00 0.00 0.00 73 1009.1
20260505041147 5 1 9.7 29.0 0.00 0.00 0.00 71 1009.0
20260505040148 6 353 12.9 25.7 0.00 0.00 0.00 71 1008.8
20260505035147 6 354 9.7 22.5 0.00 0.00 0.00 71 1008.7
20260505034147 6 2 12.9 22.5 0.00 0.00 0.00 71 1008.7
20260505033148 6 4 14.5 22.5 0.00 0.00 0.00 69 1008.7
20260505032147 6 360 9.7 25.7 0.00 0.00 0.00 68 1008.5
20260505031147 6 3 11.3 20.9 0.00 0.00 0.00 68 1008.4
20260505030148 6 357 11.3 24.1 0.00 0.00 0.00 66 1008.2
20260505025147 6 2 9.7 24.1 0.00 0.00 0.00 1008.3